Time,TemperatureF,DewpointF,PressureIn,WindDirection,WindDirectionDegrees,WindSpeedMPH,WindSpeedGustMPH,Humidity,HourlyPrecipIn,Conditions,Clouds,dailyrainin,SolarRadiationWatts/m^2,SoftwareType,DateUTC
2013-08-06 00:02:00,71.0,69.0,-100.00,South,181,0.0,0.0,93,0.00,,,0.00,0.000000,,2013-08-06 05:02:00,
2013-08-06 00:43:00,71.0,68.0,-100.00,South,189,0.0,0.0,90,0.00,,,0.00,0.000000,,2013-08-06 05:43:00,
2013-08-06 00:53:00,71.0,68.0,-100.00,South,189,0.0,0.0,90,0.00,,,0.00,0.000000,,2013-08-06 05:53:00,
2013-08-06 01:02:00,71.0,68.0,-100.00,South,189,0.0,0.0,90,0.00,,,0.00,0.000000,,2013-08-06 06:02:00,
2013-08-06 01:32:00,70.0,66.0,-100.00,South,178,0.0,2.0,88,0.00,,,0.00,0.000000,,2013-08-06 06:32:00,
2013-08-06 01:43:00,70.0,66.0,-100.00,South,178,0.0,2.0,88,0.00,,,0.00,0.000000,,2013-08-06 06:43:00,
2013-08-06 01:52:00,70.0,66.0,-100.00,South,178,0.0,2.0,88,0.00,,,0.00,0.000000,,2013-08-06 06:52:00,
2013-08-06 02:01:00,70.0,66.0,-100.00,South,178,0.0,2.0,88,0.00,,,0.00,0.000000,,2013-08-06 07:01:00,
2013-08-06 02:32:00,70.0,67.0,-100.00,SSW,195,0.0,2.0,89,0.00,,,0.00,0.000000,,2013-08-06 07:32:00,
2013-08-06 02:44:00,70.0,67.0,-100.00,SSW,195,0.0,2.0,89,0.00,,,0.00,0.000000,,2013-08-06 07:44:00,
2013-08-06 02:53:00,70.0,67.0,-100.00,SSW,195,0.0,2.0,89,0.00,,,0.00,0.000000,,2013-08-06 07:53:00,
2013-08-06 03:02:00,70.0,67.0,-100.00,SSW,195,0.0,2.0,89,0.00,,,0.00,0.000000,,2013-08-06 08:02:00,
2013-08-06 03:33:00,70.0,67.0,-100.00,South,184,0.0,0.0,90,0.00,,,0.00,0.000000,,2013-08-06 08:33:00,
2013-08-06 03:43:00,70.0,67.0,-100.00,South,184,0.0,0.0,90,0.00,,,0.00,0.000000,,2013-08-06 08:43:00,
2013-08-06 03:52:00,70.0,67.0,-100.00,South,184,0.0,0.0,90,0.00,,,0.00,0.000000,,2013-08-06 08:52:00,
2013-08-06 04:01:00,70.0,67.0,-100.00,South,184,0.0,0.0,90,0.00,,,0.00,0.000000,,2013-08-06 09:01:00,
2013-08-06 04:33:00,70.0,67.0,-100.00,SE,132,0.0,0.0,91,0.00,,,0.00,0.000000,,2013-08-06 09:33:00,
2013-08-06 04:43:00,70.0,67.0,-100.00,SE,132,0.0,0.0,91,0.00,,,0.00,0.000000,,2013-08-06 09:43:00,
2013-08-06 04:52:00,70.0,67.0,-100.00,SE,132,0.0,0.0,91,0.00,,,0.00,0.000000,,2013-08-06 09:52:00,
2013-08-06 05:01:00,70.0,67.0,-100.00,SE,132,0.0,0.0,91,0.00,,,0.00,0.000000,,2013-08-06 10:01:00,
2013-08-06 05:32:00,70.0,65.0,-100.00,SSE,161,2.0,5.0,85,0.00,,,0.00,0.000000,,2013-08-06 10:32:00,
2013-08-06 05:43:00,70.0,65.0,-100.00,SSE,161,2.0,5.0,85,0.00,,,0.00,0.000000,,2013-08-06 10:43:00,
2013-08-06 05:53:00,70.0,65.0,-100.00,SSE,161,2.0,5.0,85,0.00,,,0.00,0.000000,,2013-08-06 10:53:00,
2013-08-06 06:02:00,70.0,65.0,-100.00,SSE,161,2.0,5.0,85,0.00,,,0.00,0.000000,,2013-08-06 11:02:00,
2013-08-06 06:32:00,70.0,67.0,-100.00,SSE,156,1.0,5.0,90,0.00,,,0.00,1.000000,,2013-08-06 11:32:00,
2013-08-06 06:43:00,70.0,67.0,-100.00,SSE,156,1.0,5.0,90,0.00,,,0.00,1.000000,,2013-08-06 11:43:00,
2013-08-06 06:53:00,70.0,67.0,-100.00,SSE,156,1.0,5.0,90,0.00,,,0.00,1.000000,,2013-08-06 11:53:00,
2013-08-06 07:02:00,70.0,67.0,-100.00,SSE,156,1.0,5.0,90,0.00,,,0.00,1.000000,,2013-08-06 12:02:00,
2013-08-06 07:32:00,71.0,68.0,-100.00,South,174,2.0,5.0,90,0.00,,,0.00,19.000000,,2013-08-06 12:32:00,
2013-08-06 07:43:00,71.0,68.0,-100.00,South,174,2.0,5.0,90,0.00,,,0.00,19.000000,,2013-08-06 12:43:00,
2013-08-06 07:52:00,71.0,68.0,-100.00,South,174,2.0,5.0,90,0.00,,,0.00,19.000000,,2013-08-06 12:52:00,
2013-08-06 08:02:00,71.0,68.0,-100.00,South,174,2.0,5.0,90,0.00,,,0.00,19.000000,,2013-08-06 13:02:00,
2013-08-06 08:42:00,73.0,69.0,-100.00,SSW,207,3.0,7.0,87,0.00,,,0.00,86.000000,,2013-08-06 13:42:00,
2013-08-06 08:53:00,73.0,69.0,-100.00,SSW,207,3.0,7.0,87,0.00,,,0.00,86.000000,,2013-08-06 13:53:00,
2013-08-06 09:01:00,73.0,69.0,-100.00,SSW,207,3.0,7.0,87,0.00,,,0.00,86.000000,,2013-08-06 14:01:00,
2013-08-06 09:42:00,76.0,70.0,-100.00,SSW,209,4.0,7.0,82,0.00,,,0.00,209.000000,,2013-08-06 14:42:00,
2013-08-06 09:53:00,76.0,70.0,-100.00,SSW,209,4.0,7.0,82,0.00,,,0.00,209.000000,,2013-08-06 14:53:00,
2013-08-06 10:02:00,76.0,70.0,-100.00,SSW,209,4.0,7.0,82,0.00,,,0.00,209.000000,,2013-08-06 15:02:00,
2013-08-06 10:33:00,78.0,72.0,-100.00,SSW,212,3.0,7.0,81,0.00,,,0.00,244.000000,,2013-08-06 15:33:00,
2013-08-06 10:44:00,78.0,72.0,-100.00,SSW,212,3.0,7.0,81,0.00,,,0.00,244.000000,,2013-08-06 15:44:00,
2013-08-06 10:52:00,78.0,72.0,-100.00,SSW,212,3.0,7.0,81,0.00,,,0.00,244.000000,,2013-08-06 15:52:00,
2013-08-06 11:02:00,78.0,72.0,-100.00,SSW,212,3.0,7.0,81,0.00,,,0.00,244.000000,,2013-08-06 16:02:00,
2013-08-06 11:43:00,79.0,74.0,-100.00,SSW,209,2.0,7.0,84,0.00,,,0.00,237.000000,,2013-08-06 16:43:00,
2013-08-06 11:52:00,79.0,74.0,-100.00,SSW,209,2.0,7.0,84,0.00,,,0.00,237.000000,,2013-08-06 16:52:00,
2013-08-06 12:02:00,79.0,74.0,-100.00,SSW,209,2.0,7.0,84,0.00,,,0.00,237.000000,,2013-08-06 17:02:00,
2013-08-06 12:44:00,81.0,73.0,-100.00,SW,215,4.0,7.0,76,0.00,,,0.00,430.000000,,2013-08-06 17:44:00,
2013-08-06 12:52:00,81.0,73.0,-100.00,SW,215,4.0,7.0,76,0.00,,,0.00,430.000000,,2013-08-06 17:52:00,
2013-08-06 13:01:00,81.0,73.0,-100.00,SW,215,4.0,7.0,76,0.00,,,0.00,430.000000,,2013-08-06 18:01:00,
2013-08-06 13:44:00,80.0,76.0,-100.00,SW,218,3.0,7.0,88,0.00,,,0.00,203.000000,,2013-08-06 18:44:00,
2013-08-06 13:52:00,80.0,76.0,-100.00,SW,218,3.0,7.0,88,0.00,,,0.00,203.000000,,2013-08-06 18:52:00,
2013-08-06 14:01:00,80.0,76.0,-100.00,SW,218,3.0,7.0,88,0.00,,,0.00,203.000000,,2013-08-06 19:01:00,
2013-08-06 14:32:00,79.0,73.0,-100.00,SW,222,3.0,6.0,83,0.00,,,0.00,239.000000,,2013-08-06 19:32:00,
2013-08-06 14:42:00,79.0,73.0,-100.00,SW,222,3.0,6.0,83,0.00,,,0.00,239.000000,,2013-08-06 19:42:00,
2013-08-06 14:52:00,79.0,73.0,-100.00,SW,222,3.0,6.0,83,0.00,,,0.00,239.000000,,2013-08-06 19:52:00,
2013-08-06 15:01:00,79.0,73.0,-100.00,SW,222,3.0,6.0,83,0.00,,,0.00,239.000000,,2013-08-06 20:01:00,
2013-08-06 15:32:00,84.0,76.0,-100.00,South,191,3.0,6.0,78,0.00,,,0.00,369.000000,,2013-08-06 20:32:00,
2013-08-06 15:44:00,84.0,76.0,-100.00,South,191,3.0,6.0,78,0.00,,,0.00,369.000000,,2013-08-06 20:44:00,
2013-08-06 15:52:00,84.0,76.0,-100.00,South,191,3.0,6.0,78,0.00,,,0.00,369.000000,,2013-08-06 20:52:00,
2013-08-06 16:01:00,84.0,76.0,-100.00,South,191,3.0,6.0,78,0.00,,,0.00,369.000000,,2013-08-06 21:01:00,
2013-08-06 16:43:00,83.0,76.0,-100.00,SW,216,2.0,6.0,79,0.00,,,0.00,292.000000,,2013-08-06 21:43:00,
2013-08-06 16:52:00,83.0,76.0,-100.00,SW,216,2.0,6.0,79,0.00,,,0.00,292.000000,,2013-08-06 21:52:00,
2013-08-06 17:01:00,83.0,76.0,-100.00,SW,216,2.0,6.0,79,0.00,,,0.00,292.000000,,2013-08-06 22:01:00,
2013-08-06 17:32:00,81.0,75.0,-100.00,SW,233,3.0,5.0,81,0.00,,,0.00,158.000000,,2013-08-06 22:32:00,
2013-08-06 17:43:00,81.0,75.0,-100.00,SW,233,3.0,5.0,81,0.00,,,0.00,158.000000,,2013-08-06 22:43:00,
2013-08-06 17:53:00,81.0,75.0,-100.00,SW,233,3.0,5.0,81,0.00,,,0.00,158.000000,,2013-08-06 22:53:00,
2013-08-06 18:01:00,81.0,75.0,-100.00,SW,233,3.0,5.0,81,0.00,,,0.00,158.000000,,2013-08-06 23:01:00,
2013-08-06 18:43:00,80.0,76.0,-100.00,South,184,2.0,5.0,87,0.00,,,0.00,77.000000,,2013-08-06 23:43:00,
2013-08-06 18:52:00,80.0,76.0,-100.00,South,184,2.0,5.0,87,0.00,,,0.00,77.000000,,2013-08-06 23:52:00,
2013-08-06 19:01:00,80.0,76.0,-100.00,South,184,2.0,5.0,87,0.00,,,0.00,77.000000,,2013-08-07 00:01:00,
2013-08-06 19:32:00,78.0,76.0,-100.00,South,185,1.0,5.0,93,0.00,,,0.00,26.000000,,2013-08-07 00:32:00,
2013-08-06 19:43:00,78.0,76.0,-100.00,South,185,1.0,5.0,93,0.00,,,0.00,26.000000,,2013-08-07 00:43:00,
2013-08-06 19:52:00,78.0,76.0,-100.00,South,185,1.0,5.0,93,0.00,,,0.00,26.000000,,2013-08-07 00:52:00,
2013-08-06 20:01:00,78.0,76.0,-100.00,South,185,1.0,5.0,93,0.00,,,0.00,26.000000,,2013-08-07 01:01:00,
2013-08-06 20:32:00,76.0,76.0,-100.00,SSE,166,1.0,3.0,99,0.00,,,0.00,5.000000,,2013-08-07 01:32:00,
2013-08-06 20:43:00,76.0,76.0,-100.00,SSE,166,1.0,3.0,99,0.00,,,0.00,5.000000,,2013-08-07 01:43:00,
2013-08-06 20:53:00,76.0,76.0,-100.00,SSE,166,1.0,3.0,99,0.00,,,0.00,5.000000,,2013-08-07 01:53:00,
2013-08-06 21:02:00,76.0,76.0,-100.00,SSE,166,1.0,3.0,99,0.00,,,0.00,5.000000,,2013-08-07 02:02:00,
2013-08-06 21:33:00,76.0,76.0,-100.00,SSW,205,2.0,5.0,100,0.00,,,0.00,0.000000,,2013-08-07 02:33:00,
2013-08-06 21:43:00,76.0,76.0,-100.00,SSW,205,2.0,5.0,100,0.00,,,0.00,0.000000,,2013-08-07 02:43:00,
2013-08-06 21:53:00,76.0,76.0,-100.00,SSW,205,2.0,5.0,100,0.00,,,0.00,0.000000,,2013-08-07 02:53:00,
2013-08-06 22:01:00,76.0,76.0,-100.00,SSW,205,2.0,5.0,100,0.00,,,0.00,0.000000,,2013-08-07 03:01:00,
2013-08-06 22:43:00,75.0,75.0,-100.00,South,188,2.0,6.0,99,0.00,,,0.00,0.000000,,2013-08-07 03:43:00,
2013-08-06 22:52:00,75.0,75.0,-100.00,South,188,2.0,6.0,99,0.00,,,0.00,0.000000,,2013-08-07 03:52:00,
2013-08-06 23:01:00,75.0,75.0,-100.00,South,188,2.0,6.0,99,0.00,,,0.00,0.000000,,2013-08-07 04:01:00,
2013-08-06 23:33:00,75.0,75.0,-100.00,SSW,193,2.0,5.0,100,0.00,,,0.00,0.000000,,2013-08-07 04:33:00,
2013-08-06 23:43:00,75.0,75.0,-100.00,SSW,193,2.0,5.0,100,0.00,,,0.00,0.000000,,2013-08-07 04:43:00,
2013-08-06 23:52:00,75.0,75.0,-100.00,SSW,193,2.0,5.0,100,0.00,,,0.00,0.000000,,2013-08-07 04:52:00,